Norfolk, NE

12:44 PM CDT on May 26, 2017 (GMT -0500)
Stefan Memorial

Weather History for KOFK - September, 2014

Change the Weather History Date:

Monday, September 1, 2014

  Actual Average Record
Temperature  
Mean Temperature 70 °F 70 °F  
Max Temperature 80 °F 82 °F 101 °F (1911)
Min Temperature 59 °F 58 °F 42 °F (1949)
Degree Days  
Heating Degree Days 0 1  
Month to date heating degree days 0 1  
Since 1 July heating degree days 12 17  
Cooling Degree Days 5 6  
Month to date cooling degree days 5 6  
Year to date cooling degree days 732 822  
Growing Degree Days 20 (Base 50)    
Moisture  
Dew Point 58 °F    
Average Humidity 68    
Maximum Humidity 93    
Minimum Humidity 42    
Precipitation  
Precipitation 0.37 in 0.10 in 1.36 in (1936)
Month to date precipitation 0.37 0.10  
Year to date precipitation 25.59 20.63  
Snow  
Snow 0.00 in 0.00 in - ()
Month to date snowfall 0.0 0.0  
Since 1 July snowfall 0.0 0.0  
Snow Depth 0.00 in    
Sea Level Pressure  
Sea Level Pressure 29.84 in    
Wind  
Wind Speed 7 mph (West)    
Max Wind Speed 40 mph    
Max Gust Speed 50 mph    
Visibility 9 miles    
Events Rain , Thunderstorm    
T = Trace of Precipitation, MM = Missing Value Source: NWS Daily Summary

Daily Weather History Graph

Daily Weather History Graph

Search for Another Location

Airport or City:

Trip Planner

Search our weather history database for the weather conditions in past years. The results will help you decide how hot, cold, wet, or windy it might be!

Date:

Astronomy

Sep. 01, 2014 Rise Set
Actual Time 6:55 AM CDT 8:03 PM CDT
Civil Twilight 6:26 AM CDT 8:31 PM CDT
Nautical Twilight 5:52 AM CDT 9:06 PM CDT
Astronomical Twilight 5:16 AM CDT 9:41 PM CDT
Moon 1:49 PM CDT (9/1) 11:58 PM CDT (9/1)
Length of Visible Light 14h 05m
Length of Day
13h 07m
Waxing Crescent, 42% of the Moon is Illuminated
Sep 1
Waxing Crescent
Sep 2
First Quarter
Sep 8
Full
Sep 15
Last Quarter
Sep 24
New

Hourly Weather History & Observations

Time (CDT) Temp. Heat Index Dew Point Humidity Pressure Visibility Wind Dir Wind Speed Gust Speed Precip Events Conditions
12:56 AM 62.1 °F - 60.1 °F 93% 29.64 in 10.0 mi NNW 3.5 mph - N/A   Partly Cloudy
1:56 AM 62.1 °F - 60.1 °F 93% 29.69 in 10.0 mi West 9.2 mph - N/A   Clear
2:56 AM 61.0 °F - 57.9 °F 90% 29.72 in 10.0 mi West 5.8 mph - N/A   Clear
3:56 AM 60.1 °F - 57.9 °F 93% 29.73 in 10.0 mi West 6.9 mph - N/A   Clear
4:56 AM 61.0 °F - 57.9 °F 90% 29.75 in 10.0 mi West 11.5 mph - N/A   Scattered Clouds
5:56 AM 60.1 °F - 57.9 °F 93% 29.77 in 10.0 mi WNW 9.2 mph - N/A   Clear
6:56 AM 59.0 °F - 57.0 °F 93% 29.79 in 10.0 mi West 6.9 mph - N/A   Clear
7:56 AM 60.1 °F - 57.0 °F 90% 29.81 in 10.0 mi West 6.9 mph - N/A   Clear
8:56 AM 62.1 °F - 57.9 °F 86% 29.82 in 10.0 mi WNW 9.2 mph - N/A   Clear
9:56 AM 66.9 °F - 60.1 °F 79% 29.83 in 10.0 mi NW 9.2 mph - N/A   Clear
11:56 AM 73.9 °F - 61.0 °F 64% 29.86 in 10.0 mi WNW 9.2 mph - N/A   Clear
12:56 PM 75.9 °F - 60.1 °F 58% 29.86 in 10.0 mi WNW 8.1 mph - N/A   Clear
1:56 PM 77.0 °F - 59.0 °F 54% 29.86 in 10.0 mi Calm Calm - N/A   Partly Cloudy
3:56 PM 80.1 °F 80.2 °F 55.9 °F 43% 29.85 in 10.0 mi Variable 4.6 mph - N/A   Partly Cloudy
4:56 PM 77.0 °F - 55.0 °F 47% 29.85 in 10.0 mi SSW 5.8 mph - 0.00 in   Partly Cloudy
5:56 PM 78.1 °F - 55.9 °F 46% 29.84 in 10.0 mi South 5.8 mph - N/A   Clear
6:56 PM 75.9 °F - 59.0 °F 56% 29.84 in 10.0 mi South 5.8 mph - N/A   Clear
7:56 PM 69.1 °F - 61.0 °F 75% 29.85 in 10.0 mi SSE 5.8 mph - N/A   Clear
8:56 PM 66.0 °F - 61.0 °F 84% 29.85 in 10.0 mi SSE 4.6 mph - N/A   Clear
9:56 PM 68.0 °F - 61.0 °F 78% 29.87 in 10.0 mi South 4.6 mph - N/A   Clear
10:18 PM 64.9 °F - 57.0 °F 75% 29.94 in 9.0 mi WNW 33.4 mph 50.6 mph 0.00 in Rain , Thunderstorm Light Thunderstorms and Rain
10:24 PM 61.0 °F - 57.0 °F 87% 29.98 in 1.8 mi NW 24.2 mph 50.6 mph 0.04 in Rain , Thunderstorm Heavy Thunderstorms and Rain
10:31 PM 60.8 °F - 57.2 °F 88% 29.99 in 1.0 mi WNW 17.3 mph 40.3 mph N/A Rain , Thunderstorm Heavy Thunderstorms and Rain
10:35 PM 60.1 °F - 57.9 °F 93% 29.99 in 2.0 mi WNW 18.4 mph 26.5 mph 0.25 in Rain , Thunderstorm Thunderstorms and Rain
10:43 PM 60.1 °F - 57.9 °F 93% 29.99 in 5.0 mi WNW 13.8 mph 23.0 mph 0.27 in Rain , Thunderstorm Rain
10:56 PM 60.1 °F - 57.9 °F 93% 29.97 in 5.0 mi WNW 8.1 mph - 0.32 in Rain Rain
11:56 PM 59.0 °F - 55.9 °F 90% 29.94 in 10.0 mi SSW 10.4 mph - 0.05 in   Partly Cloudy